This demonstration page uses our WeatherBlox Daily Observations layout. Learn more.

Left ArrowRight Arrow

39.08367, -84.50855

Hourly Observations for January 9, 2018

Temp ( °F °C ) Dew Point ( °F °C ) Humidity (%) Winds ( mph kmh ) Pressure ( in mb ) Visibility ( mi km ) Precip ( " mm )
12:53 am 00:53 Cloudy 37 2.8 34 1.1 89 89 WSW 7 11 30.24 1024 10 16.0934 0 0
1:53 am 01:53 Cloudy 36 2.2 34 1.1 93 93 WSW 8 13 30.24 1024 9 14.48406 0 0
2:53 am 02:53 Cloudy 36 2.2 34 1.1 93 93 SW 6 9 30.27 1025 9 14.48406 0 0
3:13 am 03:13 Cloudy 36 2.2 34 1.1 93 93 SW 7 11 30.3 1026 9 14.48406 0 0
3:53 am 03:53 Cloudy 36 2.2 34 1.1 93 93 SW 7 11 30.27 1025 8 12.87472 0 0
4:53 am 04:53 Cloudy 35 1.7 33 0.6 93 93 W 6 9 30.28 1026 8 12.87472 0 0
5:53 am 05:53 Cloudy with Mist and Fog 34 1.1 33 0.6 97 97 WSW 3 6 30.29 1026 6 9.65604 0 0
6:53 am 06:53 Cloudy with Mist and Fog 34 1.1 33 0.6 97 97 SW 5 7 30.32 1027 6 9.65604 0 0
7:53 am 07:53 Cloudy with Mist and Fog 34 1.1 32 0 92 92 Calm 30.32 1027 4 6.43736 0 0
8:53 am 08:53 Cloudy with Mist and Fog 34 1.1 33 0.6 97 97 Calm 30.33 1027 4 6.43736 0 0
9:53 am 09:53 Cloudy with Mist and Fog 34 1.1 32 0 92 92 SW 3 6 30.35 1028 4 6.43736 0 0
10:53 am 10:53 Cloudy with Mist and Fog 35 1.7 33 0.6 93 93 SW 7 11 30.37 1028 4 6.43736 0 0
11:53 am 11:53 Cloudy with Mist and Fog 36 2.2 33 0.6 89 89 Calm 30.35 1028 5 8.0467 0 0
12:53 pm 12:53 Cloudy with Mist and Fog 37 2.8 34 1.1 89 89 Calm 30.33 1027 6 9.65604 0 0
1:53 pm 13:53 Cloudy 39 3.9 34 1.1 82 82 Calm 30.3 1026 7 11.26538 0 0
2:53 pm 14:53 Partly Cloudy 43 6.1 35 1.7 74 74 N 3 6 30.28 1025 8 12.87472 0 0
3:53 pm 15:53 Mostly Sunny 42 5.6 34 1.1 73 73 Calm 30.28 1025 8 12.87472 0 0
4:53 pm 16:53 Sunny 40 4.4 34 1.1 79 79 Calm 30.29 1026 7 11.26538 0 0
5:53 pm 17:53 Clear 35 1.7 33 0.6 93 93 Calm 30.31 1026 8 12.87472 0 0
6:53 pm 18:53 Clear 34 1.1 32 0 92 92 Calm 30.3 1026 7 11.26538 0 0
7:53 pm 19:53 Clear with Mist and Fog 31 -0.6 31 -0.6 100 100 Calm 30.3 1026 6 9.65604 0 0
8:53 pm 20:53 Clear with Mist and Fog 31 -0.6 30 -1.1 96 96 Calm 30.29 1026 5 8.0467 0 0
9:53 pm 21:53 Clear with Mist and Fog 30 -1.1 30 -1.1 100 100 Calm 30.29 1026 5 8.0467 0 0
10:53 pm 22:53 Cloudy with Mist and Fog 32 0 32 0 100 100 Calm 30.29 1026 5 8.0467 0 0
11:53 pm 23:53 Cloudy with Mist and Fog 33 0.6 33 0.6 100 100 Calm 30.27 1025 5 8.0467 0 0

Powered by AerisWeather